Sarasota, FL

9:41 PM EST on December 14, 2019 (GMT -0500)
Sarasota-bradenton

Weather History for KSRQ - October, 2019

Change the Weather History Date:

Saturday, October 12, 2019

  Actual Average Record
Temperature  
Mean Temperature 80 °F 77 °F  
Max Temperature 89 °F 86 °F 94 °F (1959)
Min Temperature 71 °F 69 °F 58 °F (1967)
Degree Days  
Heating Degree Days 0 0  
Month to date heating degree days 0 0  
Since 1 July heating degree days 0 0  
Cooling Degree Days 15 12  
Month to date cooling degree days 221 164  
Year to date cooling degree days 3678 2953  
Growing Degree Days 30 (Base 50)    
Moisture  
Dew Point 67 °F    
Average Humidity 69    
Maximum Humidity 93    
Minimum Humidity 46    
Precipitation  
Precipitation 0.00 in 0.11 in 1.30 in (1987)
Month to date precipitation 0.34 1.48  
Year to date precipitation 43.72 46.91  
Sea Level Pressure  
Sea Level Pressure 29.98 in    
Wind  
Wind Speed 6 mph ()    
Max Wind Speed 12 mph    
Max Gust Speed 16 mph    
Visibility 10.0 miles    
Events      
T = Trace of Precipitation, MM = Missing Value Source: Averaged Metar Reports

Daily Weather History Graph

Daily Weather History Graph

Search for Another Location

Airport or City:

Astronomy

Oct. 12, 2019 Rise Set
Actual Time 7:28 AM EDT 7:04 PM EDT
Civil Twilight 7:04 AM EDT 7:28 PM EDT
Nautical Twilight 6:37 AM EDT 7:55 PM EDT
Astronomical Twilight 6:10 AM EDT 8:22 PM EDT
Moon 6:49 PM EDT (10/12) 6:18 AM EDT (10/12)
Length of Visible Light 12h 23m
Length of Day
11h 36m
Waxing Gibbous, 99% of the Moon is Illuminated
Oct 12
Waxing Gibbous
Oct 13
Full
Oct 21
Last Quarter
Oct 27
New
Nov 4
First Quarter

Hourly Weather History & Observations

Time (EDT) Temp. Heat Index Dew Point Humidity Pressure Visibility Wind Dir Wind Speed Gust Speed Precip Events Conditions
12:53 AM 73.9 °F - 68.0 °F 82% 30.00 in 10.0 mi East 8.1 mph - N/A   Clear
1:53 AM 73.0 °F - 68.0 °F 84% 29.99 in 10.0 mi East 10.4 mph - N/A   Clear
2:53 AM 73.0 °F - 68.0 °F 84% 29.98 in 10.0 mi East 8.1 mph - N/A   Clear
3:53 AM 72.0 °F - 68.0 °F 87% 29.96 in 10.0 mi East 6.9 mph - N/A   Clear
4:53 AM 72.0 °F - 68.0 °F 87% 29.95 in 10.0 mi East 8.1 mph - N/A   Clear
5:53 AM 72.0 °F - 68.0 °F 87% 29.96 in 10.0 mi East 6.9 mph - N/A   Clear
6:53 AM 72.0 °F - 68.0 °F 87% 29.96 in 10.0 mi East 6.9 mph - N/A   Clear
7:53 AM 72.0 °F - 69.1 °F 91% 29.97 in 10.0 mi ENE 5.8 mph - N/A   Clear
8:53 AM 75.9 °F - 69.1 °F 79% 29.99 in 10.0 mi East 5.8 mph - N/A   Clear
9:53 AM 80.1 °F 82.7 °F 68.0 °F 67% 30.00 in 10.0 mi ENE 10.4 mph - N/A   Clear
10:53 AM 82.9 °F 85.8 °F 68.0 °F 60% 30.01 in 10.0 mi East 5.8 mph - N/A   Scattered Clouds
11:53 AM 84.9 °F 87.1 °F 66.0 °F 53% 30.01 in 10.0 mi East 5.8 mph - N/A   Scattered Clouds
12:53 PM 84.9 °F 87.6 °F 66.9 °F 55% 30.00 in 10.0 mi NE 4.6 mph - N/A   Overcast
1:53 PM 89.1 °F 91.3 °F 66.0 °F 46% 29.99 in 10.0 mi ENE 9.2 mph - N/A   Mostly Cloudy
2:53 PM 86.0 °F 87.6 °F 64.9 °F 49% 29.97 in 10.0 mi NE 4.6 mph - N/A   Overcast
3:53 PM 86.0 °F 87.6 °F 64.9 °F 49% 29.96 in 10.0 mi East 6.9 mph - N/A   Overcast
4:53 PM 86.0 °F 87.6 °F 64.9 °F 49% 29.96 in 10.0 mi East 6.9 mph - N/A   Overcast
5:53 PM 86.0 °F 87.6 °F 64.9 °F 49% 29.96 in 10.0 mi Calm Calm - N/A   Overcast
6:53 PM 82.9 °F 84.6 °F 64.9 °F 54% 29.96 in 10.0 mi East 5.8 mph - N/A   Partly Cloudy
7:53 PM 80.1 °F 82.1 °F 66.0 °F 62% 29.98 in 10.0 mi Calm Calm - N/A   Partly Cloudy
8:53 PM 78.1 °F - 66.9 °F 68% 29.99 in 10.0 mi East 3.5 mph - N/A   Clear
9:53 PM 77.0 °F - 66.9 °F 71% 29.99 in 10.0 mi NNE 4.6 mph - N/A   Clear
10:53 PM 75.9 °F - 66.9 °F 74% 30.01 in 10.0 mi East 8.1 mph - N/A   Clear
11:53 PM 75.9 °F - 69.1 °F 79% 30.01 in 10.0 mi ESE 9.2 mph - N/A   Clear